Time,TemperatureF,DewpointF,PressureIn,WindDirection,WindDirectionDegrees,WindSpeedMPH,WindSpeedGustMPH,Humidity,HourlyPrecipIn,Conditions,Clouds,dailyrainin,SolarRadiationWatts/m^2,SoftwareType,DateUTC
2013-03-08 00:02:00,40.8,39.5,28.47,SSW,210,0.0,0.0,95,0.00,CLR,FEW,0.00,0.0,WeatherDisplay:10.37,2013-03-07 23:02:00,
2013-03-08 00:07:00,40.6,39.3,28.47,SW,220,0.0,0.0,95,0.00,CLR,FEW,0.00,0.0,WeatherDisplay:10.37,2013-03-07 23:07:00,
2013-03-08 00:12:00,40.6,39.3,28.47,SW,220,0.0,0.0,95,0.00,CLR,FEW,0.00,0.0,WeatherDisplay:10.37,2013-03-07 23:12:00,
2013-03-08 00:17:00,40.6,39.3,28.47,SW,220,0.0,0.0,95,0.00,CLR,FEW,0.00,0.0,WeatherDisplay:10.37,2013-03-07 23:17:00,
2013-03-08 00:22:00,40.8,39.8,28.47,West,275,0.0,0.0,96,0.00,CLR,FEW,0.00,0.0,WeatherDisplay:10.37,2013-03-07 23:22:00,
2013-03-08 00:27:00,40.8,39.8,28.47,SW,230,0.0,0.0,96,0.00,CLR,FEW,0.00,0.0,WeatherDisplay:10.37,2013-03-07 23:27:00,
2013-03-08 00:32:00,41.5,40.5,28.47,West,260,0.0,0.0,96,0.00,CLR,FEW,0.00,0.0,WeatherDisplay:10.37,2013-03-07 23:32:00,
2013-03-08 00:37:00,41.5,40.5,28.47,West,260,0.0,0.0,96,0.00,CLR,FEW,0.00,0.0,WeatherDisplay:10.37,2013-03-07 23:37:00,
2013-03-08 00:42:00,41.2,40.1,28.47,SE,130,0.0,0.0,96,0.00,CLR,FEW,0.00,0.0,WeatherDisplay:10.37,2013-03-07 23:42:00,
2013-03-08 00:47:00,41.4,40.3,28.47,SSW,200,0.0,0.0,96,0.00,CLR,FEW,0.00,0.0,WeatherDisplay:10.37,2013-03-07 23:47:00,
2013-03-08 00:52:00,42.1,41.0,28.47,South,185,1.1,1.5,96,0.00,CLR,FEW,0.00,0.0,WeatherDisplay:10.37,2013-03-07 23:52:00,
2013-03-08 00:57:00,42.1,41.0,28.47,SSW,195,2.3,2.4,96,0.00,CLR,FEW,0.00,0.0,WeatherDisplay:10.37,2013-03-07 23:57:00,
2013-03-08 01:02:00,42.1,41.0,28.47,South,180,2.3,2.3,96,0.00,CLR,FEW,0.00,0.0,WeatherDisplay:10.37,2013-03-08 00:02:00,
2013-03-08 01:07:00,42.1,41.0,28.47,SW,215,0.0,0.0,96,0.00,CLR,FEW,0.00,0.0,WeatherDisplay:10.37,2013-03-08 00:07:00,
2013-03-08 01:12:00,42.1,41.0,28.47,SW,215,0.0,0.0,96,0.00,CLR,FEW,0.00,0.0,WeatherDisplay:10.37,2013-03-08 00:12:00,
2013-03-08 01:17:00,42.1,41.0,28.47,North,0,0.0,0.0,96,0.00,CLR,FEW,0.00,0.0,WeatherDisplay:10.37,2013-03-08 00:17:00,
2013-03-08 01:22:00,42.4,41.4,28.47,NW,315,0.0,0.0,96,0.00,CLR,FEW,0.00,0.0,WeatherDisplay:10.37,2013-03-08 00:22:00,
2013-03-08 01:27:00,42.1,41.0,28.50,NNW,340,0.0,0.0,96,0.00,CLR,FEW,0.00,0.0,WeatherDisplay:10.37,2013-03-08 00:27:00,
2013-03-08 01:32:00,41.9,40.8,28.50,North,350,0.0,0.4,96,0.00,CLR,FEW,0.00,0.0,WeatherDisplay:10.37,2013-03-08 00:32:00,
2013-03-08 01:37:00,41.9,40.8,28.50,North,350,0.0,0.4,96,0.00,CLR,FEW,0.00,0.0,WeatherDisplay:10.37,2013-03-08 00:37:00,
2013-03-08 01:42:00,41.5,40.5,28.50,NNE,30,0.0,0.0,96,0.00,CLR,FEW,0.00,0.0,WeatherDisplay:10.37,2013-03-08 00:42:00,
2013-03-08 01:47:00,42.1,41.0,28.50,SE,145,0.0,0.0,96,0.00,CLR,FEW,0.00,0.0,WeatherDisplay:10.37,2013-03-08 00:47:00,
2013-03-08 01:52:00,43.2,42.1,28.50,SSW,205,3.5,3.5,96,0.00,CLR,FEW,0.00,0.0,WeatherDisplay:10.37,2013-03-08 00:52:00,
2013-03-08 01:57:00,43.5,42.5,28.47,ENE,75,2.3,2.6,96,0.00,CLR,FEW,0.00,0.0,WeatherDisplay:10.37,2013-03-08 00:57:00,
2013-03-08 02:02:00,43.5,42.5,28.47,ESE,115,1.1,1.7,96,0.00,CLR,FEW,0.00,0.0,WeatherDisplay:10.37,2013-03-08 01:02:00,
2013-03-08 02:07:00,43.5,42.5,28.47,South,175,0.0,0.0,96,0.00,CLR,FEW,0.00,0.0,WeatherDisplay:10.37,2013-03-08 01:07:00,
2013-03-08 02:12:00,43.5,42.5,28.47,South,175,0.0,0.0,96,0.00,CLR,FEW,0.00,0.0,WeatherDisplay:10.37,2013-03-08 01:12:00,
2013-03-08 02:17:00,43.5,42.5,28.47,South,175,0.0,0.0,96,0.00,CLR,FEW,0.00,0.0,WeatherDisplay:10.37,2013-03-08 01:17:00,
2013-03-08 02:22:00,43.5,42.7,28.47,SW,220,0.0,0.2,97,0.00,CLR,FEW,0.00,0.0,WeatherDisplay:10.37,2013-03-08 01:22:00,
2013-03-08 02:27:00,43.5,42.7,28.47,South,180,0.0,0.0,97,0.00,CLR,FEW,0.00,0.0,WeatherDisplay:10.37,2013-03-08 01:27:00,
2013-03-08 02:32:00,43.2,42.4,28.47,NNW,335,0.0,0.0,97,0.00,CLR,FEW,0.00,0.0,WeatherDisplay:10.37,2013-03-08 01:32:00,
2013-03-08 02:37:00,43.2,42.4,28.47,NNW,335,0.0,0.0,97,0.00,CLR,FEW,0.00,0.0,WeatherDisplay:10.37,2013-03-08 01:37:00,
2013-03-08 02:42:00,42.8,42.0,28.47,North,350,0.0,0.0,97,0.00,CLR,FEW,0.00,0.0,WeatherDisplay:10.37,2013-03-08 01:42:00,
2013-03-08 02:47:00,42.6,41.8,28.47,NNW,335,0.0,0.0,97,0.00,CLR,FEW,0.00,0.0,WeatherDisplay:10.37,2013-03-08 01:47:00,
2013-03-08 02:52:00,43.3,42.5,28.47,SSE,150,1.1,1.1,97,0.00,CLR,FEW,0.00,0.0,WeatherDisplay:10.37,2013-03-08 01:52:00,
2013-03-08 02:57:00,43.2,42.4,28.47,SSE,150,2.3,2.3,97,0.00,CLR,FEW,0.00,0.0,WeatherDisplay:10.37,2013-03-08 01:57:00,
2013-03-08 03:02:00,43.2,42.4,28.47,South,190,0.0,0.4,97,0.00,CLR,FEW,0.00,0.0,WeatherDisplay:10.37,2013-03-08 02:02:00,
2013-03-08 03:07:00,43.2,42.4,28.47,SW,220,0.0,0.0,97,0.00,CLR,FEW,0.00,0.0,WeatherDisplay:10.37,2013-03-08 02:07:00,
2013-03-08 03:12:00,43.2,42.4,28.47,SW,220,0.0,0.0,97,0.00,CLR,FEW,0.00,0.0,WeatherDisplay:10.37,2013-03-08 02:12:00,
2013-03-08 03:17:00,43.2,42.4,28.47,SSW,210,0.0,0.0,97,0.00,CLR,FEW,0.00,0.0,WeatherDisplay:10.37,2013-03-08 02:17:00,
2013-03-08 03:22:00,41.7,40.7,28.47,NNE,15,0.0,0.0,96,0.00,CLR,FEW,0.00,0.0,WeatherDisplay:10.37,2013-03-08 02:22:00,
2013-03-08 03:27:00,41.4,40.6,28.47,NNE,15,0.0,0.0,97,0.00,CLR,FEW,0.00,0.0,WeatherDisplay:10.37,2013-03-08 02:27:00,
2013-03-08 03:32:00,41.4,40.6,28.47,NW,315,0.0,0.0,97,0.00,CLR,FEW,0.00,0.0,WeatherDisplay:10.37,2013-03-08 02:32:00,
2013-03-08 03:37:00,41.4,40.6,28.47,NW,315,0.0,0.0,97,0.00,CLR,FEW,0.00,0.0,WeatherDisplay:10.37,2013-03-08 02:37:00,
2013-03-08 03:42:00,41.5,40.8,28.47,NNW,340,0.0,0.0,97,0.00,CLR,FEW,0.00,0.0,WeatherDisplay:10.37,2013-03-08 02:42:00,
2013-03-08 03:47:00,41.7,40.9,28.47,NNE,15,0.0,0.0,97,0.00,CLR,FEW,0.00,0.0,WeatherDisplay:10.37,2013-03-08 02:47:00,
2013-03-08 03:52:00,41.5,40.8,28.47,NNW,345,0.0,0.0,97,0.00,CLR,FEW,0.00,0.0,WeatherDisplay:10.37,2013-03-08 02:52:00,
2013-03-08 03:57:00,41.4,40.6,28.47,NNW,340,0.0,0.0,97,0.00,CLR,FEW,0.00,0.0,WeatherDisplay:10.37,2013-03-08 02:57:00,
2013-03-08 04:02:00,41.4,40.6,28.47,NW,320,0.0,0.0,97,0.00,CLR,FEW,0.00,0.0,WeatherDisplay:10.37,2013-03-08 03:02:00,
2013-03-08 04:07:00,41.5,40.8,28.47,NW,320,0.0,0.0,97,0.00,CLR,FEW,0.00,0.0,WeatherDisplay:10.37,2013-03-08 03:07:00,
2013-03-08 04:12:00,41.5,40.8,28.47,NW,320,0.0,0.0,97,0.00,CLR,FEW,0.00,0.0,WeatherDisplay:10.37,2013-03-08 03:12:00,
2013-03-08 04:17:00,41.7,40.9,28.47,NW,315,0.0,0.0,97,0.00,CLR,FEW,0.00,0.0,WeatherDisplay:10.37,2013-03-08 03:17:00,
2013-03-08 04:22:00,41.7,40.9,28.47,NW,315,0.0,0.0,97,0.00,CLR,FEW,0.00,0.0,WeatherDisplay:10.37,2013-03-08 03:22:00,
2013-03-08 04:27:00,41.5,40.8,28.47,North,0,0.0,0.0,97,0.00,CLR,FEW,0.00,0.0,WeatherDisplay:10.37,2013-03-08 03:27:00,
2013-03-08 04:33:00,41.5,40.8,28.47,North,350,0.0,0.0,97,0.00,CLR,FEW,0.00,0.0,WeatherDisplay:10.37,2013-03-08 03:33:00,
2013-03-08 04:38:00,41.5,40.8,28.47,WSW,240,0.0,0.0,97,0.00,CLR,FEW,0.00,0.0,WeatherDisplay:10.37,2013-03-08 03:38:00,
2013-03-08 04:43:00,41.5,40.8,28.47,WSW,240,0.0,0.0,97,0.00,CLR,FEW,0.00,0.0,WeatherDisplay:10.37,2013-03-08 03:43:00,
2013-03-08 04:48:00,42.1,41.3,28.47,SW,215,3.5,3.5,97,0.00,CLR,FEW,0.00,0.0,WeatherDisplay:10.37,2013-03-08 03:48:00,
2013-03-08 04:53:00,42.4,41.6,28.47,WSW,240,2.3,2.6,97,0.00,CLR,FEW,0.00,0.0,WeatherDisplay:10.37,2013-03-08 03:53:00,
2013-03-08 04:58:00,42.4,41.6,28.47,SW,215,0.0,0.0,97,0.00,CLR,FEW,0.00,0.0,WeatherDisplay:10.37,2013-03-08 03:58:00,
2013-03-08 05:03:00,42.4,41.6,28.47,SSW,210,0.0,0.0,97,0.00,CLR,FEW,0.00,0.0,WeatherDisplay:10.37,2013-03-08 04:03:00,
2013-03-08 05:08:00,42.4,41.6,28.47,SW,225,2.3,2.3,97,0.00,CLR,FEW,0.00,0.0,WeatherDisplay:10.37,2013-03-08 04:08:00,
2013-03-08 05:13:00,42.4,41.6,28.47,SW,235,1.1,1.7,97,0.00,CLR,FEW,0.00,0.0,WeatherDisplay:10.37,2013-03-08 04:13:00,
2013-03-08 05:18:00,42.4,41.6,28.47,SW,235,1.1,1.7,97,0.00,CLR,FEW,0.00,0.0,WeatherDisplay:10.37,2013-03-08 04:18:00,
2013-03-08 05:23:00,42.4,41.6,28.47,SW,215,2.3,2.3,97,0.00,CLR,FEW,0.00,0.0,WeatherDisplay:10.37,2013-03-08 04:23:00,
2013-03-08 05:28:00,42.4,41.6,28.47,West,265,0.0,0.0,97,0.00,CLR,FEW,0.00,0.0,WeatherDisplay:10.37,2013-03-08 04:28:00,
2013-03-08 05:33:00,42.4,41.6,28.47,SW,215,2.3,2.3,97,0.00,CLR,FEW,0.00,0.0,WeatherDisplay:10.37,2013-03-08 04:33:00,
2013-03-08 05:39:00,42.3,41.5,28.47,SW,220,0.0,0.0,97,0.00,CLR,FEW,0.00,0.0,WeatherDisplay:10.37,2013-03-08 04:39:00,
2013-03-08 05:44:00,42.3,41.5,28.47,SW,220,0.0,0.0,97,0.00,CLR,FEW,0.00,0.0,WeatherDisplay:10.37,2013-03-08 04:44:00,
2013-03-08 05:49:00,42.3,41.5,28.47,SW,220,0.0,0.0,97,0.00,CLR,FEW,0.00,0.0,WeatherDisplay:10.37,2013-03-08 04:49:00,
2013-03-08 05:54:00,42.3,41.5,28.47,SW,225,0.0,0.0,97,0.00,CLR,FEW,0.00,0.0,WeatherDisplay:10.37,2013-03-08 04:54:00,
2013-03-08 05:59:00,41.7,40.9,28.47,West,270,0.0,0.0,97,0.00,CLR,FEW,0.00,0.0,WeatherDisplay:10.37,2013-03-08 04:59:00,
2013-03-08 06:00:00,41.7,40.9,28.47,WSW,252,0.0,2.0,97,0.00,CLR,FEW,0.00,0.0,WeatherDisplay:10.37,2013-03-08 05:00:00,
2013-03-08 06:03:00,41.5,40.8,28.47,West,270,0.0,0.0,97,0.00,OVC,FEW,0.00,0.0,WeatherDisplay:10.37,2013-03-08 05:03:00,
2013-03-08 06:08:00,41.7,40.9,28.47,West,270,0.0,0.0,97,0.00,OVC,FEW,0.00,0.0,WeatherDisplay:10.37,2013-03-08 05:08:00,
2013-03-08 06:13:00,42.1,41.3,28.47,SW,230,0.0,0.0,97,0.00,OVC,FEW,0.00,0.0,WeatherDisplay:10.37,2013-03-08 05:13:00,
2013-03-08 06:18:00,42.1,41.3,28.47,SW,230,0.0,0.0,97,0.00,OVC,FEW,0.00,0.0,WeatherDisplay:10.37,2013-03-08 05:18:00,
2013-03-08 06:23:00,42.3,41.5,28.47,SSW,210,2.3,2.3,97,0.00,OVC,FEW,0.00,0.0,WeatherDisplay:10.37,2013-03-08 05:23:00,
2013-03-08 06:28:00,42.1,41.3,28.47,SW,235,1.1,1.1,97,0.00,OVC,FEW,0.00,0.0,WeatherDisplay:10.37,2013-03-08 05:28:00,
2013-03-08 06:33:00,42.1,41.3,28.47,SW,230,0.0,0.2,97,0.00,OVC,FEW,0.00,0.0,WeatherDisplay:10.37,2013-03-08 05:33:00,
2013-03-08 06:38:00,42.1,41.3,28.47,WSW,250,0.0,0.0,97,0.00,OVC,FEW,0.00,0.0,WeatherDisplay:10.37,2013-03-08 05:38:00,
2013-03-08 06:43:00,42.1,41.3,28.47,WSW,250,0.0,0.0,97,0.00,OVC,FEW,0.00,0.0,WeatherDisplay:10.37,2013-03-08 05:43:00,
2013-03-08 06:48:00,42.3,41.5,28.47,SW,215,0.0,0.0,97,0.00,OVC,FEW,0.00,0.0,WeatherDisplay:10.37,2013-03-08 05:48:00,
2013-03-08 06:54:00,42.1,41.3,28.47,SW,220,0.0,0.0,97,0.00,OVC,FEW,0.00,0.0,WeatherDisplay:10.37,2013-03-08 05:54:00,
2013-03-08 06:59:00,42.1,41.3,28.47,SSW,200,0.0,0.0,97,0.00,OVC,FEW,0.00,0.0,WeatherDisplay:10.37,2013-03-08 05:59:00,
2013-03-08 07:04:00,42.1,41.3,28.47,SE,125,1.1,1.5,97,0.00,OVC,FEW,0.00,0.0,WeatherDisplay:10.37,2013-03-08 06:04:00,
2013-03-08 07:09:00,42.1,41.3,28.47,SSE,165,1.1,1.1,97,0.00,OVC,FEW,0.00,0.0,WeatherDisplay:10.37,2013-03-08 06:09:00,
2013-03-08 07:14:00,41.9,41.1,28.47,SSE,155,0.0,0.0,97,0.00,OVC,FEW,0.00,0.0,WeatherDisplay:10.37,2013-03-08 06:14:00,
2013-03-08 07:19:00,41.9,41.1,28.47,SSE,155,0.0,0.0,97,0.00,OVC,FEW,0.00,0.0,WeatherDisplay:10.37,2013-03-08 06:19:00,
2013-03-08 07:24:00,42.1,41.3,28.47,SSW,200,1.1,1.1,97,0.00,OVC,FEW,0.00,0.0,WeatherDisplay:10.37,2013-03-08 06:24:00,
2013-03-08 07:29:00,42.1,41.3,28.47,East,85,2.3,2.4,97,0.00,OVC,FEW,0.00,0.0,WeatherDisplay:10.37,2013-03-08 06:29:00,
2013-03-08 07:34:00,42.1,41.3,28.47,SSW,195,0.0,0.0,97,0.00,OVC,FEW,0.00,0.0,WeatherDisplay:10.37,2013-03-08 06:34:00,
2013-03-08 07:39:00,42.1,41.3,28.47,SSW,205,3.5,3.5,97,0.00,OVC,FEW,0.00,0.0,WeatherDisplay:10.37,2013-03-08 06:39:00,
2013-03-08 07:44:00,42.3,41.5,28.47,South,190,2.3,2.6,97,0.00,OVC,FEW,0.00,0.0,WeatherDisplay:10.37,2013-03-08 06:44:00,
2013-03-08 07:49:00,42.3,41.5,28.47,South,190,2.3,2.6,97,0.00,OVC,FEW,0.00,0.0,WeatherDisplay:10.37,2013-03-08 06:49:00,
2013-03-08 07:54:00,42.3,41.5,28.47,SSE,165,3.5,3.5,97,0.00,OVC,FEW,0.00,0.0,WeatherDisplay:10.37,2013-03-08 06:54:00,
2013-03-08 07:59:00,42.3,41.5,28.50,SSW,200,2.3,2.8,97,0.00,OVC,FEW,0.00,0.0,WeatherDisplay:10.37,2013-03-08 06:59:00,
2013-03-08 08:04:00,42.4,41.6,28.50,SSW,195,1.1,1.5,97,0.00,OVC,FEW,0.00,0.0,WeatherDisplay:10.37,2013-03-08 07:04:00,
2013-03-08 08:09:00,42.3,41.5,28.47,SSW,200,2.3,2.4,97,0.00,OVC,FEW,0.00,0.0,WeatherDisplay:10.37,2013-03-08 07:09:00,
2013-03-08 08:14:00,42.4,41.6,28.47,South,170,1.1,1.1,97,0.00,OVC,FEW,0.00,0.0,WeatherDisplay:10.37,2013-03-08 07:14:00,
2013-03-08 08:19:00,42.4,41.6,28.47,South,170,1.1,1.1,97,0.00,OVC,FEW,0.00,0.0,WeatherDisplay:10.37,2013-03-08 07:19:00,
2013-03-08 08:24:00,42.4,41.9,28.47,SSW,195,1.1,1.5,98,0.00,OVC,FEW,0.00,0.0,WeatherDisplay:10.37,2013-03-08 07:24:00,
2013-03-08 08:29:00,42.6,41.8,28.47,South,170,1.1,1.1,97,0.00,OVC,FEW,0.00,0.0,WeatherDisplay:10.37,2013-03-08 07:29:00,
2013-03-08 08:34:00,42.6,41.8,28.47,South,170,1.1,1.1,97,0.00,OVC,FEW,0.00,0.0,WeatherDisplay:10.37,2013-03-08 07:34:00,
2013-03-08 08:39:00,42.8,42.0,28.47,SSW,210,4.6,4.6,97,0.00,OVC,FEW,0.00,0.0,WeatherDisplay:10.37,2013-03-08 07:39:00,
2013-03-08 08:44:00,42.8,42.0,28.47,SSE,165,3.5,4.0,97,0.00,OVC,FEW,0.00,0.0,WeatherDisplay:10.37,2013-03-08 07:44:00,
2013-03-08 08:49:00,42.8,42.0,28.47,SSE,165,3.5,4.0,97,0.00,OVC,FEW,0.00,0.0,WeatherDisplay:10.37,2013-03-08 07:49:00,
2013-03-08 08:54:00,43.0,42.2,28.47,SE,145,4.6,4.6,97,0.00,OVC,FEW,0.00,0.0,WeatherDisplay:10.37,2013-03-08 07:54:00,
2013-03-08 08:59:00,43.0,42.2,28.47,SE,145,4.6,4.6,97,0.00,OVC,FEW,0.00,0.0,WeatherDisplay:10.37,2013-03-08 07:59:00,
2013-03-08 09:04:00,43.2,42.6,28.47,South,180,3.5,3.5,98,0.00,OVC,FEW,0.00,0.0,WeatherDisplay:10.37,2013-03-08 08:04:00,
2013-03-08 09:09:00,43.2,42.6,28.47,SSE,165,4.6,4.6,98,0.00,OVC,FEW,0.00,0.0,WeatherDisplay:10.37,2013-03-08 08:09:00,
2013-03-08 09:14:00,43.3,42.8,28.47,South,180,6.9,7.0,98,0.00,OVC,FEW,0.00,0.0,WeatherDisplay:10.37,2013-03-08 08:14:00,
2013-03-08 09:19:00,43.3,42.8,28.47,South,180,6.9,7.0,98,0.00,OVC,FEW,0.00,0.0,WeatherDisplay:10.37,2013-03-08 08:19:00,
2013-03-08 09:24:00,43.5,43.0,28.47,South,170,3.5,3.8,98,0.00,OVC,FEW,0.00,0.0,WeatherDisplay:10.37,2013-03-08 08:24:00,
2013-03-08 09:29:00,43.5,43.0,28.47,SSE,160,3.5,3.5,98,0.00,OVC,FEW,0.00,0.0,WeatherDisplay:10.37,2013-03-08 08:29:00,
2013-03-08 09:34:00,43.3,42.8,28.47,SE,140,5.8,5.8,98,0.00,OVC,FEW,0.00,0.0,WeatherDisplay:10.37,2013-03-08 08:34:00,
2013-03-08 09:39:00,43.5,43.0,28.50,SSW,195,6.9,6.9,98,0.00,OVC,FEW,0.00,0.0,WeatherDisplay:10.37,2013-03-08 08:39:00,
2013-03-08 09:44:00,43.5,43.0,28.50,South,190,5.8,6.0,98,0.00,OVC,FEW,0.00,0.0,WeatherDisplay:10.37,2013-03-08 08:44:00,
2013-03-08 09:49:00,43.5,43.0,28.50,South,190,5.8,6.0,98,0.00,OVC,FEW,0.00,0.0,WeatherDisplay:10.37,2013-03-08 08:49:00,
2013-03-08 09:54:00,43.7,43.2,28.50,South,180,4.6,4.6,98,0.00,OVC,FEW,0.00,0.0,WeatherDisplay:10.37,2013-03-08 08:54:00,
2013-03-08 09:59:00,43.7,43.2,28.47,SSE,155,4.6,4.6,98,0.00,OVC,FEW,0.00,0.0,WeatherDisplay:10.37,2013-03-08 08:59:00,
2013-03-08 10:04:00,43.7,43.2,28.47,South,175,3.5,4.0,98,0.00,OVC,FEW,0.00,0.0,WeatherDisplay:10.37,2013-03-08 09:04:00,
2013-03-08 10:09:00,44.1,43.5,28.47,SSE,160,3.5,3.5,98,0.00,OVC,FEW,0.00,0.0,WeatherDisplay:10.37,2013-03-08 09:09:00,
2013-03-08 10:14:00,43.9,43.4,28.47,SSE,160,3.5,3.8,98,0.00,OVC,FEW,0.00,0.0,WeatherDisplay:10.37,2013-03-08 09:14:00,
2013-03-08 10:19:00,43.9,43.4,28.47,SSE,160,3.5,3.8,98,0.00,OVC,FEW,0.00,0.0,WeatherDisplay:10.37,2013-03-08 09:19:00,
2013-03-08 10:24:00,44.1,43.5,28.47,SSE,160,2.3,2.8,98,0.00,OVC,FEW,0.00,0.0,WeatherDisplay:10.37,2013-03-08 09:24:00,
2013-03-08 10:29:00,44.1,43.5,28.47,SSE,160,3.5,3.8,98,0.00,OVC,FEW,0.00,0.0,WeatherDisplay:10.37,2013-03-08 09:29:00,
2013-03-08 10:34:00,44.2,43.4,28.47,SE,145,2.3,2.8,97,0.00,OVC,FEW,0.00,0.0,WeatherDisplay:10.37,2013-03-08 09:34:00,
2013-03-08 10:39:00,44.2,43.4,28.47,SE,145,2.3,2.8,97,0.00,OVC,FEW,0.00,0.0,WeatherDisplay:10.37,2013-03-08 09:39:00,
2013-03-08 10:44:00,44.4,43.6,28.47,SSE,165,3.5,3.5,97,0.00,OVC,FEW,0.00,0.0,WeatherDisplay:10.37,2013-03-08 09:44:00,
2013-03-08 10:49:00,44.4,43.6,28.47,SSE,165,3.5,3.5,97,0.00,OVC,FEW,0.00,0.0,WeatherDisplay:10.37,2013-03-08 09:49:00,
2013-03-08 10:54:00,44.4,43.6,28.47,SSE,150,3.5,3.8,97,0.00,OVC,FEW,0.00,0.0,WeatherDisplay:10.37,2013-03-08 09:54:00,
2013-03-08 10:59:00,44.6,43.8,28.47,SSW,195,3.5,3.8,97,0.00,OVC,FEW,0.00,0.0,WeatherDisplay:10.37,2013-03-08 09:59:00,
2013-03-08 11:04:00,44.6,43.5,28.47,South,185,2.3,2.6,96,0.00,OVC,FEW,0.00,0.0,WeatherDisplay:10.37,2013-03-08 10:04:00,
2013-03-08 11:09:00,44.6,43.5,28.47,ESE,110,3.5,3.5,96,0.00,OVC,FEW,0.00,0.0,WeatherDisplay:10.37,2013-03-08 10:09:00,
2013-03-08 11:14:00,44.8,43.4,28.47,South,180,2.3,2.6,95,0.00,OVC,FEW,0.00,0.0,WeatherDisplay:10.37,2013-03-08 10:14:00,
2013-03-08 11:19:00,44.8,43.4,28.47,South,180,2.3,2.6,95,0.00,OVC,FEW,0.00,0.0,WeatherDisplay:10.37,2013-03-08 10:19:00,
2013-03-08 11:24:00,45.0,43.6,28.47,South,180,1.1,1.3,95,0.00,OVC,FEW,0.00,0.0,WeatherDisplay:10.37,2013-03-08 10:24:00,
2013-03-08 11:29:00,45.1,43.8,28.47,SSW,195,3.5,3.5,95,0.00,OVC,FEW,0.00,0.0,WeatherDisplay:10.37,2013-03-08 10:29:00,
2013-03-08 11:34:00,45.1,43.8,28.47,SW,230,3.5,3.5,95,0.00,OVC,FEW,0.00,0.0,WeatherDisplay:10.37,2013-03-08 10:34:00,
2013-03-08 11:39:00,45.1,43.8,28.47,SW,230,3.5,3.5,95,0.00,OVC,FEW,0.00,0.0,WeatherDisplay:10.37,2013-03-08 10:39:00,
2013-03-08 11:44:00,45.5,44.2,28.47,SSW,205,2.3,2.6,95,0.00,OVC,FEW,0.00,0.0,WeatherDisplay:10.37,2013-03-08 10:44:00,
2013-03-08 11:49:00,45.5,44.2,28.47,SSW,205,2.3,2.6,95,0.00,OVC,FEW,0.00,0.0,WeatherDisplay:10.37,2013-03-08 10:49:00,
2013-03-08 11:54:00,45.3,44.0,28.47,South,175,2.3,2.8,95,0.00,OVC,FEW,0.00,0.0,WeatherDisplay:10.37,2013-03-08 10:54:00,
2013-03-08 11:59:00,45.7,44.1,28.47,South,185,4.6,4.6,94,0.00,OVC,FEW,0.00,0.0,WeatherDisplay:10.37,2013-03-08 10:59:00,
2013-03-08 12:04:00,45.7,44.1,28.47,SSE,155,3.5,3.5,94,0.00,OVC,FEW,0.00,0.0,WeatherDisplay:10.37,2013-03-08 11:04:00,
2013-03-08 12:09:00,45.9,44.2,28.47,SSE,160,2.3,2.8,94,0.00,OVC,FEW,0.00,0.0,WeatherDisplay:10.37,2013-03-08 11:09:00,
2013-03-08 12:14:00,45.9,44.2,28.47,South,190,2.3,2.8,94,0.00,OVC,FEW,0.00,0.0,WeatherDisplay:10.37,2013-03-08 11:14:00,
2013-03-08 12:19:00,45.9,44.2,28.47,South,190,2.3,2.8,94,0.00,OVC,FEW,0.00,0.0,WeatherDisplay:10.37,2013-03-08 11:19:00,
2013-03-08 12:24:00,46.4,44.5,28.47,SE,140,2.3,2.3,93,0.00,OVC,FEW,0.00,0.0,WeatherDisplay:10.37,2013-03-08 11:24:00,
2013-03-08 12:29:00,46.0,44.1,28.47,South,170,4.6,4.9,93,0.00,OVC,FEW,0.00,0.0,WeatherDisplay:10.37,2013-03-08 11:29:00,
2013-03-08 12:34:00,46.4,44.5,28.47,SSE,155,4.6,4.6,93,0.00,OVC,FEW,0.00,0.0,WeatherDisplay:10.37,2013-03-08 11:34:00,
2013-03-08 12:39:00,46.2,44.3,28.47,SE,140,5.8,5.8,93,0.00,OVC,FEW,0.00,0.0,WeatherDisplay:10.37,2013-03-08 11:39:00,
2013-03-08 12:44:00,46.4,44.5,28.47,SSE,150,5.8,6.2,93,0.00,OVC,FEW,0.00,0.0,WeatherDisplay:10.37,2013-03-08 11:44:00,
2013-03-08 12:49:00,46.4,44.5,28.47,SSE,150,5.8,6.2,93,0.00,OVC,FEW,0.00,0.0,WeatherDisplay:10.37,2013-03-08 11:49:00,
2013-03-08 12:54:00,46.4,44.2,28.47,SW,215,8.1,8.1,92,0.00,OVC,FEW,0.00,0.0,WeatherDisplay:10.37,2013-03-08 11:54:00,
2013-03-08 12:59:00,46.6,44.4,28.47,SSE,165,4.6,4.6,92,0.00,OVC,FEW,0.00,0.0,WeatherDisplay:10.37,2013-03-08 11:59:00,
2013-03-08 13:04:00,46.4,44.2,28.47,SE,140,6.9,7.0,92,0.00,OVC,FEW,0.00,0.0,WeatherDisplay:10.37,2013-03-08 12:04:00,
2013-03-08 13:09:00,46.6,44.1,28.47,SE,140,5.8,5.8,91,0.00,OVC,FEW,0.00,0.0,WeatherDisplay:10.37,2013-03-08 12:09:00,
2013-03-08 13:14:00,46.8,44.3,28.47,SSE,150,6.9,6.9,91,0.00,OVC,FEW,0.00,0.0,WeatherDisplay:10.37,2013-03-08 12:14:00,
2013-03-08 13:19:00,46.8,44.3,28.47,SSE,150,6.9,6.9,91,0.00,OVC,FEW,0.00,0.0,WeatherDisplay:10.37,2013-03-08 12:19:00,
2013-03-08 13:24:00,46.9,44.7,28.47,South,170,5.8,5.8,92,0.00,OVC,FEW,0.00,0.0,WeatherDisplay:10.37,2013-03-08 12:24:00,
2013-03-08 13:29:00,46.9,44.7,28.47,SE,135,6.9,6.9,92,0.00,OVC,FEW,0.00,0.0,WeatherDisplay:10.37,2013-03-08 12:29:00,
2013-03-08 13:34:00,46.9,44.4,28.47,SSW,210,6.9,6.9,91,0.00,OVC,FEW,0.00,0.0,WeatherDisplay:10.37,2013-03-08 12:34:00,
2013-03-08 13:39:00,47.1,44.6,28.47,SSE,160,8.1,8.3,91,0.00,OVC,FEW,0.00,0.0,WeatherDisplay:10.37,2013-03-08 12:39:00,
2013-03-08 13:44:00,46.9,44.7,28.47,SSW,210,8.1,8.3,92,0.00,OVC,FEW,0.00,0.0,WeatherDisplay:10.37,2013-03-08 12:44:00,
2013-03-08 13:49:00,46.9,44.7,28.47,SSW,210,8.1,8.3,92,0.00,OVC,FEW,0.00,0.0,WeatherDisplay:10.37,2013-03-08 12:49:00,
2013-03-08 13:54:00,46.9,44.7,28.47,SSW,200,6.9,6.9,92,0.00,OVC,FEW,0.00,0.0,WeatherDisplay:10.37,2013-03-08 12:54:00,
2013-03-08 14:00:00,47.1,44.6,28.47,SSE,155,9.2,9.2,91,0.00,OVC,FEW,0.00,0.0,WeatherDisplay:10.37,2013-03-08 13:00:00,
2013-03-08 14:05:00,47.1,44.6,28.47,South,180,4.6,5.1,91,0.00,OVC,FEW,0.00,0.0,WeatherDisplay:10.37,2013-03-08 13:05:00,
2013-03-08 14:10:00,47.1,44.6,28.44,SSW,200,4.6,4.9,91,0.00,OVC,FEW,0.00,0.0,WeatherDisplay:10.37,2013-03-08 13:10:00,
2013-03-08 14:15:00,47.3,44.5,28.44,South,190,4.6,4.6,90,0.00,OVC,FEW,0.00,0.0,WeatherDisplay:10.37,2013-03-08 13:15:00,
2013-03-08 14:20:00,47.3,44.5,28.44,South,190,4.6,4.6,90,0.00,OVC,FEW,0.00,0.0,WeatherDisplay:10.37,2013-03-08 13:20:00,
2013-03-08 14:25:00,47.3,44.5,28.44,South,170,5.8,5.8,90,0.00,OVC,FEW,0.00,0.0,WeatherDisplay:10.37,2013-03-08 13:25:00,
2013-03-08 14:30:00,47.1,44.3,28.47,SE,135,5.8,5.8,90,0.00,OVC,FEW,0.00,0.0,WeatherDisplay:10.37,2013-03-08 13:30:00,
2013-03-08 14:35:00,47.3,44.5,28.47,SSE,160,5.8,5.8,90,0.00,OVC,FEW,0.00,0.0,WeatherDisplay:10.37,2013-03-08 13:35:00,
2013-03-08 14:40:00,47.3,44.5,28.47,SSE,160,5.8,5.8,90,0.00,OVC,FEW,0.00,0.0,WeatherDisplay:10.37,2013-03-08 13:40:00,
2013-03-08 14:45:00,47.1,44.3,28.44,SSE,155,6.9,6.9,90,0.00,OVC,FEW,0.00,0.0,WeatherDisplay:10.37,2013-03-08 13:45:00,
2013-03-08 14:50:00,47.1,44.3,28.44,SSE,155,6.9,6.9,90,0.00,OVC,FEW,0.00,0.0,WeatherDisplay:10.37,2013-03-08 13:50:00,
2013-03-08 14:55:00,47.1,44.3,28.44,South,170,4.6,4.9,90,0.00,OVC,FEW,0.00,0.0,WeatherDisplay:10.37,2013-03-08 13:55:00,
2013-03-08 15:00:00,47.1,44.3,28.47,SE,125,5.8,6.2,90,0.00,OVC,FEW,0.00,0.0,WeatherDisplay:10.37,2013-03-08 14:00:00,
2013-03-08 15:05:00,47.1,44.3,28.47,SSE,160,6.9,6.9,90,0.00,OVC,FEW,0.00,0.0,WeatherDisplay:10.37,2013-03-08 14:05:00,
2013-03-08 15:10:00,46.9,44.2,28.47,South,180,5.8,6.0,90,0.00,OVC,FEW,0.00,0.0,WeatherDisplay:10.37,2013-03-08 14:10:00,
2013-03-08 15:15:00,46.9,44.2,28.47,SE,140,5.8,5.8,90,0.00,OVC,FEW,0.00,0.0,WeatherDisplay:10.37,2013-03-08 14:15:00,
2013-03-08 15:20:00,47.1,44.6,28.47,SSE,165,5.8,5.8,91,0.00,OVC,FEW,0.00,0.0,WeatherDisplay:10.37,2013-03-08 14:20:00,
2013-03-08 15:25:00,47.1,44.6,28.47,SSE,165,5.8,5.8,91,0.00,OVC,FEW,0.00,0.0,WeatherDisplay:10.37,2013-03-08 14:25:00,
2013-03-08 15:30:00,47.1,44.6,28.47,SSW,195,2.3,2.6,91,0.00,OVC,FEW,0.00,0.0,WeatherDisplay:10.37,2013-03-08 14:30:00,
2013-03-08 15:35:00,47.1,44.6,28.47,SSE,165,5.8,5.8,91,0.00,OVC,FEW,0.00,0.0,WeatherDisplay:10.37,2013-03-08 14:35:00,
2013-03-08 15:40:00,47.1,44.6,28.47,SE,145,3.5,3.5,91,0.00,OVC,FEW,0.00,0.0,WeatherDisplay:10.37,2013-03-08 14:40:00,
2013-03-08 15:45:00,47.1,44.6,28.47,South,175,5.8,5.8,91,0.00,OVC,FEW,0.00,0.0,WeatherDisplay:10.37,2013-03-08 14:45:00,
2013-03-08 15:50:00,47.1,44.6,28.47,South,190,3.5,4.0,91,0.00,OVC,FEW,0.00,0.0,WeatherDisplay:10.37,2013-03-08 14:50:00,
2013-03-08 15:55:00,47.1,44.6,28.47,South,190,3.5,4.0,91,0.00,OVC,FEW,0.00,0.0,WeatherDisplay:10.37,2013-03-08 14:55:00,
2013-03-08 16:00:00,47.1,44.6,28.47,SSE,160,6.9,7.1,91,0.00,OVC,FEW,0.00,0.0,WeatherDisplay:10.37,2013-03-08 15:00:00,
2013-03-08 16:05:00,47.1,44.6,28.47,SSW,210,4.6,4.9,91,0.00,OVC,FEW,0.00,0.0,WeatherDisplay:10.37,2013-03-08 15:05:00,
2013-03-08 16:10:00,47.1,44.6,28.47,SE,135,5.8,5.8,91,0.00,OVC,FEW,0.00,0.0,WeatherDisplay:10.37,2013-03-08 15:10:00,
2013-03-08 16:15:00,47.1,44.3,28.47,SSW,200,5.8,5.8,90,0.00,OVC,FEW,0.00,0.0,WeatherDisplay:10.37,2013-03-08 15:15:00,
2013-03-08 16:20:00,47.1,44.3,28.47,SSW,195,5.8,5.8,90,0.00,OVC,FEW,0.00,0.0,WeatherDisplay:10.37,2013-03-08 15:20:00,
2013-03-08 16:25:00,47.1,44.3,28.47,SSW,195,5.8,5.8,90,0.00,OVC,FEW,0.00,0.0,WeatherDisplay:10.37,2013-03-08 15:25:00,
2013-03-08 16:30:00,47.1,44.3,28.47,South,180,3.5,3.5,90,0.00,OVC,FEW,0.00,0.0,WeatherDisplay:10.37,2013-03-08 15:30:00,
2013-03-08 16:35:00,47.1,44.3,28.47,SE,140,4.6,4.9,90,0.00,OVC,FEW,0.00,0.0,WeatherDisplay:10.37,2013-03-08 15:35:00,
2013-03-08 16:40:00,47.1,44.3,28.47,SSE,165,5.8,5.8,90,0.00,OVC,FEW,0.00,0.0,WeatherDisplay:10.37,2013-03-08 15:40:00,
2013-03-08 16:45:00,47.1,44.3,28.47,SE,145,3.5,3.8,90,0.00,OVC,FEW,0.00,0.0,WeatherDisplay:10.37,2013-03-08 15:45:00,
2013-03-08 16:50:00,47.1,44.3,28.47,South,175,4.6,4.6,90,0.00,OVC,FEW,0.00,0.0,WeatherDisplay:10.37,2013-03-08 15:50:00,
2013-03-08 16:55:00,47.1,44.3,28.47,South,175,4.6,4.6,90,0.00,OVC,FEW,0.00,0.0,WeatherDisplay:10.37,2013-03-08 15:55:00,
2013-03-08 17:00:00,46.9,44.2,28.47,SSW,205,4.6,4.6,90,0.00,OVC,FEW,0.00,0.0,WeatherDisplay:10.37,2013-03-08 16:00:00,
2013-03-08 17:06:00,46.9,44.2,28.47,South,170,3.5,3.8,90,0.00,OVC,FEW,0.00,0.0,WeatherDisplay:10.37,2013-03-08 16:06:00,
2013-03-08 17:11:00,46.8,44.0,28.44,South,180,2.3,2.3,90,0.00,OVC,FEW,0.00,0.0,WeatherDisplay:10.37,2013-03-08 16:11:00,
2013-03-08 17:16:00,46.8,44.0,28.44,South,185,2.3,2.3,90,0.00,OVC,FEW,0.00,0.0,WeatherDisplay:10.37,2013-03-08 16:16:00,
2013-03-08 17:21:00,46.8,44.0,28.44,SSW,195,2.3,2.3,90,0.00,OVC,FEW,0.00,0.0,WeatherDisplay:10.37,2013-03-08 16:21:00,
2013-03-08 17:26:00,46.8,44.0,28.44,SSW,195,2.3,2.3,90,0.00,OVC,FEW,0.00,0.0,WeatherDisplay:10.37,2013-03-08 16:26:00,
2013-03-08 17:31:00,46.8,44.0,28.47,SSW,195,0.0,0.0,90,0.00,OVC,FEW,0.00,0.0,WeatherDisplay:10.37,2013-03-08 16:31:00,
2013-03-08 17:36:00,46.8,44.0,28.47,SSW,195,0.0,0.0,90,0.00,OVC,FEW,0.00,0.0,WeatherDisplay:10.37,2013-03-08 16:36:00,
2013-03-08 17:41:00,46.8,44.0,28.47,SSW,195,0.0,0.0,90,0.00,OVC,FEW,0.00,0.0,WeatherDisplay:10.37,2013-03-08 16:41:00,
2013-03-08 17:46:00,46.6,43.8,28.47,SSW,200,1.1,1.1,90,0.00,OVC,FEW,0.00,0.0,WeatherDisplay:10.37,2013-03-08 16:46:00,
2013-03-08 17:51:00,46.4,43.9,28.47,SSE,160,0.0,0.0,91,0.00,OVC,FEW,0.00,0.0,WeatherDisplay:10.37,2013-03-08 16:51:00,
2013-03-08 17:56:00,46.2,43.7,28.47,South,185,1.1,1.1,91,0.00,OVC,FEW,0.00,0.0,WeatherDisplay:10.37,2013-03-08 16:56:00,
2013-03-08 18:01:00,46.2,43.7,28.47,South,185,2.3,2.3,91,0.00,CLR,FEW,0.00,0.0,WeatherDisplay:10.37,2013-03-08 17:01:00,
2013-03-08 18:06:00,46.2,43.7,28.47,South,185,2.3,2.3,91,0.00,CLR,FEW,0.00,0.0,WeatherDisplay:10.37,2013-03-08 17:06:00,
2013-03-08 18:11:00,46.2,43.7,28.47,South,175,2.3,2.3,91,0.00,CLR,FEW,0.00,0.0,WeatherDisplay:10.37,2013-03-08 17:11:00,
2013-03-08 18:16:00,46.2,43.7,28.47,South,175,2.3,2.3,91,0.00,CLR,FEW,0.00,0.0,WeatherDisplay:10.37,2013-03-08 17:16:00,
2013-03-08 18:21:00,46.0,43.6,28.47,South,175,0.0,0.0,91,0.00,CLR,FEW,0.00,0.0,WeatherDisplay:10.37,2013-03-08 17:21:00,
2013-03-08 18:26:00,46.0,43.6,28.47,SSE,165,2.3,2.4,91,0.00,CLR,FEW,0.00,0.0,WeatherDisplay:10.37,2013-03-08 17:26:00,
2013-03-08 18:31:00,46.0,43.6,28.47,SSE,165,2.3,2.4,91,0.00,CLR,FEW,0.00,0.0,WeatherDisplay:10.37,2013-03-08 17:31:00,
2013-03-08 18:36:00,46.0,43.6,28.47,South,170,3.5,3.5,91,0.00,CLR,FEW,0.00,0.0,WeatherDisplay:10.37,2013-03-08 17:36:00,
2013-03-08 18:41:00,45.9,43.4,28.47,SSE,160,3.5,3.5,91,0.00,CLR,FEW,0.00,0.0,WeatherDisplay:10.37,2013-03-08 17:41:00,
2013-03-08 18:46:00,45.9,43.4,28.47,SSW,205,3.5,4.0,91,0.00,CLR,FEW,0.00,0.0,WeatherDisplay:10.37,2013-03-08 17:46:00,
2013-03-08 18:51:00,45.9,43.4,28.47,SSW,205,5.8,5.8,91,0.00,CLR,FEW,0.00,0.0,WeatherDisplay:10.37,2013-03-08 17:51:00,
2013-03-08 18:56:00,45.9,43.4,28.47,SSW,205,4.6,5.1,91,0.00,CLR,FEW,0.00,0.0,WeatherDisplay:10.37,2013-03-08 17:56:00,
2013-03-08 19:01:00,45.9,43.4,28.47,South,180,6.9,6.9,91,0.00,CLR,FEW,0.00,0.0,WeatherDisplay:10.37,2013-03-08 18:01:00,
2013-03-08 19:06:00,45.9,43.4,28.47,South,180,6.9,6.9,91,0.00,CLR,FEW,0.00,0.0,WeatherDisplay:10.37,2013-03-08 18:06:00,
2013-03-08 19:11:00,45.7,43.2,28.47,South,185,4.6,4.9,91,0.00,CLR,FEW,0.00,0.0,WeatherDisplay:10.37,2013-03-08 18:11:00,
2013-03-08 19:16:00,45.7,43.2,28.47,South,170,4.6,4.7,91,0.00,CLR,FEW,0.00,0.0,WeatherDisplay:10.37,2013-03-08 18:16:00,
2013-03-08 19:21:00,45.7,43.2,28.47,South,175,6.9,6.9,91,0.00,CLR,FEW,0.00,0.0,WeatherDisplay:10.37,2013-03-08 18:21:00,
2013-03-08 19:26:00,45.5,43.0,28.47,South,185,5.8,6.0,91,0.00,CLR,FEW,0.00,0.0,WeatherDisplay:10.37,2013-03-08 18:26:00,
2013-03-08 19:31:00,45.5,43.0,28.47,South,185,5.8,6.0,91,0.00,CLR,FEW,0.00,0.0,WeatherDisplay:10.37,2013-03-08 18:31:00,
2013-03-08 19:36:00,45.5,43.0,28.47,SSW,200,4.6,5.1,91,0.00,CLR,FEW,0.00,0.0,WeatherDisplay:10.37,2013-03-08 18:36:00,
2013-03-08 19:41:00,45.3,42.8,28.47,South,180,5.8,6.2,91,0.00,CLR,FEW,0.00,0.0,WeatherDisplay:10.37,2013-03-08 18:41:00,
2013-03-08 19:46:00,45.3,42.8,28.47,South,190,4.6,4.6,91,0.00,CLR,FEW,0.00,0.0,WeatherDisplay:10.37,2013-03-08 18:46:00,
2013-03-08 19:51:00,45.1,43.0,28.47,South,190,2.3,2.6,92,0.00,CLR,FEW,0.00,0.0,WeatherDisplay:10.37,2013-03-08 18:51:00,
2013-03-08 19:56:00,45.1,43.0,28.47,South,180,4.6,4.6,92,0.00,CLR,FEW,0.00,0.0,WeatherDisplay:10.37,2013-03-08 18:56:00,
2013-03-08 20:01:00,45.1,43.0,28.47,SSW,210,3.5,3.8,92,0.00,CLR,FEW,0.00,0.0,WeatherDisplay:10.37,2013-03-08 19:01:00,
2013-03-08 20:06:00,45.1,43.0,28.47,SSW,210,3.5,3.8,92,0.00,CLR,FEW,0.00,0.0,WeatherDisplay:10.37,2013-03-08 19:06:00,
2013-03-08 20:11:00,45.1,43.0,28.47,South,185,3.5,3.5,92,0.00,CLR,FEW,0.00,0.0,WeatherDisplay:10.37,2013-03-08 19:11:00,
2013-03-08 20:16:00,45.1,43.0,28.47,South,185,3.5,3.5,92,0.00,CLR,FEW,0.00,0.0,WeatherDisplay:10.37,2013-03-08 19:16:00,
2013-03-08 20:21:00,45.0,42.8,28.47,SSW,210,4.6,4.6,92,0.00,CLR,FEW,0.00,0.0,WeatherDisplay:10.37,2013-03-08 19:21:00,
2013-03-08 20:26:00,45.0,42.8,28.50,South,185,3.5,3.5,92,0.00,CLR,FEW,0.00,0.0,WeatherDisplay:10.37,2013-03-08 19:26:00,
2013-03-08 20:31:00,45.0,42.8,28.50,South,185,3.5,3.5,92,0.00,CLR,FEW,0.00,0.0,WeatherDisplay:10.37,2013-03-08 19:31:00,
2013-03-08 20:36:00,45.0,42.8,28.50,SE,145,4.6,4.9,92,0.00,CLR,FEW,0.00,0.0,WeatherDisplay:10.37,2013-03-08 19:36:00,
2013-03-08 20:41:00,44.8,42.6,28.50,South,185,5.8,6.2,92,0.00,CLR,FEW,0.00,0.0,WeatherDisplay:10.37,2013-03-08 19:41:00,
2013-03-08 20:46:00,44.1,42.2,28.50,SE,135,5.8,5.8,93,0.00,CLR,FEW,0.00,0.0,WeatherDisplay:10.37,2013-03-08 19:46:00,
2013-03-08 20:51:00,43.7,41.8,28.50,SE,140,3.5,3.5,93,0.00,CLR,FEW,0.00,0.0,WeatherDisplay:10.37,2013-03-08 19:51:00,
2013-03-08 20:56:00,43.5,41.6,28.47,ESE,110,2.3,2.3,93,0.00,CLR,FEW,0.00,0.0,WeatherDisplay:10.37,2013-03-08 19:56:00,
2013-03-08 21:01:00,43.2,41.6,28.47,ESE,105,4.6,4.6,94,0.00,CLR,FEW,0.00,0.0,WeatherDisplay:10.37,2013-03-08 20:01:00,
2013-03-08 21:06:00,43.2,41.6,28.47,ESE,105,4.6,4.6,94,0.00,CLR,FEW,0.00,0.0,WeatherDisplay:10.37,2013-03-08 20:06:00,
2013-03-08 21:11:00,43.2,41.6,28.47,SE,135,5.8,6.0,94,0.00,CLR,FEW,0.00,0.0,WeatherDisplay:10.37,2013-03-08 20:11:00,
2013-03-08 21:16:00,43.0,41.4,28.47,ESE,110,3.5,4.0,94,0.00,CLR,FEW,0.00,0.0,WeatherDisplay:10.37,2013-03-08 20:16:00,
2013-03-08 21:21:00,43.0,41.4,28.47,ESE,110,3.5,4.0,94,0.00,CLR,FEW,0.00,0.0,WeatherDisplay:10.37,2013-03-08 20:21:00,
2013-03-08 21:26:00,42.8,41.5,28.47,ESE,105,3.5,3.8,95,0.00,CLR,FEW,0.00,0.0,WeatherDisplay:10.37,2013-03-08 20:26:00,
2013-03-08 21:31:00,42.8,41.5,28.47,ESE,105,3.5,3.8,95,0.00,CLR,FEW,0.00,0.0,WeatherDisplay:10.37,2013-03-08 20:31:00,
2013-03-08 21:36:00,42.6,41.3,28.47,South,180,4.6,4.6,95,0.00,CLR,FEW,0.00,0.0,WeatherDisplay:10.37,2013-03-08 20:36:00,
2013-03-08 21:41:00,42.6,41.3,28.47,SE,135,4.6,4.6,95,0.00,CLR,FEW,0.00,0.0,WeatherDisplay:10.37,2013-03-08 20:41:00,
2013-03-08 21:46:00,42.4,41.1,28.47,NE,55,3.5,3.5,95,0.00,CLR,FEW,0.00,0.0,WeatherDisplay:10.37,2013-03-08 20:46:00,
2013-03-08 21:51:00,42.4,41.1,28.47,East,80,3.5,3.5,95,0.00,CLR,FEW,0.00,0.0,WeatherDisplay:10.37,2013-03-08 20:51:00,
2013-03-08 21:56:00,42.3,41.2,28.50,SE,140,3.5,3.5,96,0.00,CLR,FEW,0.00,0.0,WeatherDisplay:10.37,2013-03-08 20:56:00,
2013-03-08 22:01:00,42.3,41.2,28.50,SSW,195,3.5,3.5,96,0.00,CLR,FEW,0.00,0.0,WeatherDisplay:10.37,2013-03-08 21:01:00,
2013-03-08 22:06:00,42.3,41.2,28.50,SSW,195,3.5,3.5,96,0.00,CLR,FEW,0.00,0.0,WeatherDisplay:10.37,2013-03-08 21:06:00,
2013-03-08 22:11:00,42.1,41.0,28.47,SSW,200,5.8,5.8,96,0.00,CLR,FEW,0.00,0.0,WeatherDisplay:10.37,2013-03-08 21:11:00,
2013-03-08 22:16:00,42.1,41.0,28.47,SSE,165,5.8,5.8,96,0.00,CLR,FEW,0.00,0.0,WeatherDisplay:10.37,2013-03-08 21:16:00,
2013-03-08 22:21:00,41.9,40.8,28.47,South,170,3.5,4.0,96,0.00,CLR,FEW,0.00,0.0,WeatherDisplay:10.37,2013-03-08 21:21:00,
2013-03-08 22:26:00,41.9,40.8,28.50,South,170,3.5,3.5,96,0.00,CLR,FEW,0.00,0.0,WeatherDisplay:10.37,2013-03-08 21:26:00,
2013-03-08 22:31:00,41.9,40.8,28.50,South,170,3.5,3.5,96,0.00,CLR,FEW,0.00,0.0,WeatherDisplay:10.37,2013-03-08 21:31:00,
2013-03-08 22:36:00,41.7,40.7,28.50,ESE,110,4.6,4.6,96,0.00,CLR,FEW,0.00,0.0,WeatherDisplay:10.37,2013-03-08 21:36:00,
2013-03-08 22:41:00,41.7,40.7,28.50,SSE,155,4.6,4.6,96,0.00,CLR,FEW,0.00,0.0,WeatherDisplay:10.37,2013-03-08 21:41:00,
2013-03-08 22:46:00,41.5,40.5,28.50,South,170,3.5,3.5,96,0.00,CLR,FEW,0.00,0.0,WeatherDisplay:10.37,2013-03-08 21:46:00,
2013-03-08 22:51:00,41.5,40.5,28.50,SSE,150,4.6,4.6,96,0.00,CLR,FEW,0.00,0.0,WeatherDisplay:10.37,2013-03-08 21:51:00,
2013-03-08 22:56:00,41.5,40.5,28.50,South,175,2.3,2.8,96,0.00,CLR,FEW,0.00,0.0,WeatherDisplay:10.37,2013-03-08 21:56:00,
2013-03-08 23:01:00,41.4,40.3,28.50,SSE,160,3.5,3.5,96,0.00,CLR,FEW,0.00,0.0,WeatherDisplay:10.37,2013-03-08 22:01:00,
2013-03-08 23:06:00,41.4,40.3,28.50,SSE,160,3.5,3.5,96,0.00,CLR,FEW,0.00,0.0,WeatherDisplay:10.37,2013-03-08 22:06:00,
2013-03-08 23:11:00,41.4,40.3,28.50,SSE,150,2.3,2.3,96,0.00,CLR,FEW,0.00,0.0,WeatherDisplay:10.37,2013-03-08 22:11:00,
2013-03-08 23:16:00,41.2,40.1,28.50,SE,135,2.3,2.3,96,0.00,CLR,FEW,0.00,0.0,WeatherDisplay:10.37,2013-03-08 22:16:00,
2013-03-08 23:21:00,41.2,40.1,28.50,SE,145,1.1,1.7,96,0.00,CLR,FEW,0.00,0.0,WeatherDisplay:10.37,2013-03-08 22:21:00,
2013-03-08 23:26:00,41.2,40.1,28.50,South,175,3.5,3.5,96,0.00,CLR,FEW,0.00,0.0,WeatherDisplay:10.37,2013-03-08 22:26:00,
2013-03-08 23:31:00,41.2,40.1,28.50,South,175,3.5,3.5,96,0.00,CLR,FEW,0.00,0.0,WeatherDisplay:10.37,2013-03-08 22:31:00,
2013-03-08 23:36:00,41.2,40.1,28.50,SSE,155,1.1,1.1,96,0.00,CLR,FEW,0.00,0.0,WeatherDisplay:10.37,2013-03-08 22:36:00,
2013-03-08 23:41:00,41.2,40.1,28.50,SSE,155,1.1,1.1,96,0.00,CLR,FEW,0.00,0.0,WeatherDisplay:10.37,2013-03-08 22:41:00,
2013-03-08 23:46:00,41.0,39.9,28.47,South,170,3.5,3.5,96,0.00,CLR,FEW,0.00,0.0,WeatherDisplay:10.37,2013-03-08 22:46:00,
2013-03-08 23:52:00,41.2,40.1,28.47,SSE,155,2.3,2.3,96,0.00,CLR,FEW,0.00,0.0,WeatherDisplay:10.37,2013-03-08 22:52:00,
2013-03-08 23:57:00,41.0,39.9,28.47,SSW,205,4.6,4.6,96,0.00,CLR,FEW,0.00,0.0,WeatherDisplay:10.37,2013-03-08 22:57:00,